www.pogodaiklimat.ru

Погода и климат >> Архив погоды >> Норвегия >> Juvvasshoe


ПОГОДА в Juvvasshoe

  • Прогноз погоды в Juvvasshoe
  • Монитор погоды в Juvvasshoe
  • Климат города

АРХИВ ПОГОДЫ в Juvvasshoe

Время (UTC), дата Ветер
(напр.,м/с)
 
Видим.   Явления Облачность Т
(С)
Тd
(С)
f
(%)
Тe
(С)
Тes
(С)
Комфортность P
(гПа)
Po
(гПа)
Тmin
(С)
Tmax
(С)
R
(мм)
R24
(мм)
S
(см)
13 9.07 В 3-7
{7}
н/о н/о +2.9 +2.8 99 -1 -1 1022.2 813.3
14 9.07 ЮВ 6-6
{8}
н/о н/о +3.4 +3.3 99 -3 -3 1022.0 813.5
15 9.07 ЮВ 6-7
{9}
н/о н/о +3.3 +3.3 100 -3 -3 1022.9 814.1
16 9.07 ЮВ 7-8
{9}
н/о н/о +3.8 +3.8 100 -2 -2 1022.9 814.4
17 9.07 В 3-8
{9}
н/о н/о +4.0 +3.6 97 0 0 1023.8 815.3
18 9.07 ЮВ 5-4
{9}
н/о н/о +3.8 +3.7 99 -2 -2 1024.4 815.7 -1.1 +4.6
19 9.07 ЮВ 5-8
{8}
н/о н/о +4.2 +3.8 97 -1 -1 1024.7 816.1
20 9.07 Ю 3-5
{5}
н/о н/о +4.8 +3.2 89 +1 +1 1024.8 816.6
21 9.07 ЮВ 4-5
{5}
н/о н/о +3.6 +3.0 96 -1 -1 1025.9 816.7
22 9.07 ЮВ 3-5
{5}
н/о н/о +4.9 +2.1 82 +1 +1 1025.1 817.0
23 9.07 ЮВ 3-3
{5}
н/о н/о +4.8 +2.1 83 +1 +1 1025.4 817.1
00 10.07 Ю 3-5
{8}
н/о н/о +4.8 +2.2 83 +1 +1 1025.5 817.1
01 10.07 Ю 3-4
{5}
н/о н/о +4.5 +2.2 85 +1 +1 1025.9 817.3
02 10.07 Ю 3-3
{4}
н/о н/о +4.7 +2.2 84 +1 +1 1025.7 817.3
03 10.07 Ю 3-3
{4}
н/о н/о +4.9 +1.8 80 +1 +1 1025.6 817.3
04 10.07 ЮВ 2-3
{3}
н/о н/о +5.7 +2.3 79 +3 +3 1025.3 817.6
05 10.07 Ю 1-2
{2}
н/о н/о +6.2 +1.8 73 +5 +5 1025.0 817.7
06 10.07 СВ 1-1
{5}
н/о н/о +7.8 +3.2 73 +7 +7 1023.9 817.9 +3.6 +7.9
07 10.07 В 1-3
{3}
н/о н/о +8.0 +3.6 74 +7 +7 1024.0 818.1
08 10.07 В 3-3
{5}
н/о н/о +8.4 +2.9 68 +6 +6 1023.7 818.1
09 10.07 В 2-4
{5}
н/о н/о +9.8 +2.8 62 +9 +9 1022.7 818.2
10 10.07 В 4-5
{7}
н/о н/о +10.6 +2.4 57 +8 +8 1022.1 818.2
11 10.07 ЮВ 4-6
{7}
н/о н/о +11.7 +2.4 53 +10 +10 1021.5 818.2
12 10.07 Ю 3-8
{9}
н/о н/о +12.8 +2.2 48 +12 +12 1020.7 818.4
13 10.07 С 1-5
{5}
н/о н/о +12.5 +2.7 51 +13 +13 1021.0 818.6
14 10.07 В 1-3
{4}
н/о н/о +12.2 +2.4 51 +13 +13 1021.3 818.6
15 10.07 В 2-3
{7}
н/о н/о +13.0 +2.8 50 +13 +13 1020.5 818.4
16 10.07 СЗ 2-4
{6}
н/о н/о +12.5 +3.5 54 +12 +12 1020.9 818.3
17 10.07 ЮВ 2-4
{4}
н/о н/о +12.2 +3.4 55 +12 +12 1021.0 818.3
18 10.07 Ю 2-4
{7}
н/о н/о +11.6 +3.5 58 +11 +11 1021.6 818.4 +7.1 +14.9
19 10.07 Ю 2-2
{3}
н/о н/о +11.7 +3.5 57 +11 +11 1021.5 818.4
20 10.07 штиль 0-2
{2}
н/о н/о +11.2 +3.6 59 +11 +11 1021.9 818.4
21 10.07 Ю 1-1
{2}
н/о н/о +10.4 +3.5 62 +10 +10 1022.7 818.5
22 10.07 штиль 0-1
{1}
н/о н/о +10.5 +3.8 63 +10 +10 1022.5 818.5
23 10.07 штиль 0-1
{1}
н/о н/о +10.4 +3.8 64 +10 +10 1022.6 818.4
00 11.07 ЮВ 1
{3}
н/о н/о +10.0 +3.8 65 +10 +10 1022.7 818.3
01 11.07 Ю 1-2
{2}
н/о н/о +9.5 +3.7 67 +9 +9 1022.8 818.1
02 11.07 штиль 0 н/о н/о +9.3 +3.7 68 +9 +9 1022.9 818.0
03 11.07 штиль 0
{1}
н/о н/о +10.0 +3.8 65 +10 +10 1022.1 817.8
04 11.07 штиль 0 н/о н/о +9.0 +3.8 70 +8 +8 1022.9 817.8
05 11.07 Ю 1
{1}
н/о н/о +9.3 +3.9 69 +9 +9 1022.5 817.7
06 11.07 Ю 1-1
{2}
н/о н/о +9.8 +2.9 62 +10 +10 1021.9 817.5 +8.8 +11.8
07 11.07 штиль 0-1
{1}
н/о н/о +10.7 +3.9 63 +10 +10 1021.1 817.4
08 11.07 С 1-1
{3}
н/о н/о +11.7 +4.3 60 +12 +12 1020.3 817.3
09 11.07 СЗ 2-2
{3}
н/о н/о +11.6 +4.1 60 +11 +11 1020.0 817.1
10 11.07 З 1-3
{3}
н/о н/о +11.3 +3.6 59 +11 +11 1020.1 817.0
11 11.07 З 2-3
{4}
н/о н/о +12.0 +3.6 56 +11 +11 1019.3 816.8
12 11.07 В 5-4
{8}
н/о н/о +10.9 +3.3 59 +8 +8 1020.1 816.7
13 11.07 ЮЗ 2-6
{6}
н/о н/о +12.5 +1.0 45 +12 +12 1018.1 816.1
14 11.07 З 3-4
{6}
н/о н/о +14.1 +3.0 47 +13 +13 1016.5 815.9
15 11.07 З 5-6
{8}
н/о н/о +12.7 +3.6 54 +11 +11 1017.4 815.8
16 11.07 В 2-6
{7}
н/о н/о +10.7 +5.9 72 +10 +10 1019.0 815.8
17 11.07 С 2-3
{4}
н/о н/о +10.1 +6.5 78 +9 +9 1019.3 815.5
18 11.07 СЗ 3-3
{8}
н/о н/о +10.6 +4.1 64 +9 +9 1018.6 815.3 +9.5 +14.7
19 11.07 З 4-4
{5}
н/о н/о +10.3 +2.9 60 +8 +8 1018.6 815.2
20 11.07 СЗ 1-4
{4}
н/о н/о +9.9 +3.2 63 +10 +10 1019.0 815.2
21 11.07 штиль 0-2
{2}
н/о н/о +9.3 +4.6 72 +9 +9 1019.2 815.0
22 11.07 Ю 1-1
{2}
н/о н/о +8.7 +4.3 74 +8 +8 1019.3 814.7
23 11.07 Ю 1-1
{2}
н/о н/о +8.5 +4.0 73 +8 +8 1019.3 814.6
00 12.07 штиль 0-1
{5}
н/о н/о +8.5 +4.1 74 +8 +8 1019.0 814.3
01 12.07 штиль 0
{1}
н/о н/о +8.0 +3.9 75 +7 +7 1019.0 814.0
02 12.07 СЗ 1
{2}
н/о н/о +8.5 +3.6 71 +8 +8 1018.3 813.8
03 12.07 штиль 0-1
{1}
н/о н/о +8.0 +3.8 75 +7 +7 1018.4 813.6
04 12.07 штиль 0 н/о н/о +9.1 +4.0 70 +9 +9 1017.3 813.4
05 12.07 штиль 0
{1}
н/о н/о +9.4 +5.1 74 +9 +9 1016.8 813.2
06 12.07 штиль 0-1
{2}
н/о н/о +9.1 +5.2 77 +8 +8 1017.2 813.3 +7.8 +10.8
07 12.07 СЗ 1-1
{2}
н/о н/о +9.6 +4.3 70 +9 +9 1016.9 813.3
08 12.07 СЗ 1-1
{3}
н/о н/о +9.6 +4.1 69 +9 +9 1016.7 813.2
09 12.07 СЗ 3-3
{4}
н/о н/о +9.6 +5.3 75 +7 +7 1016.4 813.0
10 12.07 Ю 1-4
{4}
н/о н/о +9.8 +5.2 73 +9 +9 1016.1 812.9
11 12.07 З 3-1
{5}
н/о н/о +11.0 +4.0 62 +9 +9 1015.0 812.8
12 12.07 -6
{6}
н/о н/о +11.5 +3.6 58 1014.4 812.7
13 12.07 СЗ 4-6
{7}
н/о н/о +12.2 +3.5 55 +10 +10 1013.7 812.5
14 12.07 С 5-6
{7}
н/о н/о +11.2 +4.3 62 +9 +9 1014.6 812.5
15 12.07 З 2-6
{6}
н/о н/о +8.7 +4.9 77 +7 +7 1016.9 812.8
16 12.07 В 2-7
{7}
н/о н/о +9.3 +6.9 85 +8 +8 1015.8 812.4
17 12.07 СВ 2-4
{4}
н/о н/о +9.7 +6.9 83 +8 +8 1015.8 812.5
18 12.07 СВ 1-4
{7}
н/о н/о +9.6 +4.5 70 +9 +9 1015.7 812.4 +8.7 +13.6
19 12.07 СВ 1-3
{3}
н/о н/о +9.8 +3.8 66 +10 +10 1015.4 812.3
20 12.07 СВ 1-1
{2}
н/о н/о +9.5 +3.8 68 +9 +9 1015.6 812.3
21 12.07 -1
{2}
н/о н/о +8.8 +4.7 75 1016.0 812.2
22 12.07 штиль 0-1
{1}
н/о н/о +7.4 +4.0 79 +7 +7 1017.1 812.2
23 12.07 штиль 0 н/о н/о +7.4 +3.3 75 +7 +7 1016.9 812.0
00 13.07 штиль 0
{3}
н/о н/о +7.5 +3.0 73 +7 +7 1016.8 812.0
01 13.07 ЮВ 1
{1}
н/о н/о +7.5 +3.9 78 +7 +7 1016.7 811.9
02 13.07 СЗ 1-1
{1}
н/о н/о +7.5 +4.1 79 +7 +7 1016.5 811.7
03 13.07 штиль 0-2
{2}
н/о н/о +7.4 +3.9 78 +7 +7 1016.4 811.6
04 13.07 штиль 0-1
{1}
н/о н/о +8.1 +3.2 71 +7 +7 1015.6 811.4
05 13.07 штиль 0
{1}
н/о н/о +9.1 +4.6 73 +9 +9 1014.7 811.4
06 13.07 СВ 1-1
{2}
н/о н/о +9.9 +5.1 72 +10 +10 1014.2 811.4 +6.8 +10.2
07 13.07 С 1-2
{3}
н/о н/о +9.9 +6.5 79 +10 +10 1014.3 811.4
08 13.07 С 1-2
{4}
н/о н/о +9.3 +6.1 80 +9 +9 1014.8 811.5
09 13.07 штиль 0-2
{2}
н/о н/о +9.9 +4.8 71 +9 +9 1014.2 811.4
10 13.07 СВ 1-1
{4}
н/о н/о +11.1 +4.5 64 +11 +11 1013.0 811.3
11 13.07 Ю 4-4
{7}
н/о н/о +12.4 +0.7 45 +11 +11 1012.2 811.4
12 13.07 ЮЗ 3-6
{7}
н/о н/о +13.4 +0.4 41 +13 +13 1011.3 811.3
13 13.07 З 5-6
{9}
н/о н/о +14.1 +0.7 40 +13 +13 1010.7 811.1
14 13.07 З 6-8
{8}
н/о н/о +13.7 +3.7 51 +12 +12 1010.8 811.0
15 13.07 ЮЗ 5-9
{9}
н/о н/о +11.5 +3.9 60 +9 +9 1012.2 811.0
16 13.07 З 5-12
{12}
н/о н/о +11.7 +1.9 51 +10 +10 1012.1 810.9
17 13.07 ЮЗ 1-6
{6}
н/о н/о +11.9 0.0 44 +12 +12 1011.9 810.8
18 13.07 З 3-5
{12}
н/о н/о +12.1 +2.6 52 +11 +11 1011.6 810.7 +9.2 +15.0
19 13.07 С 1-5
{5}
н/о н/о +10.6 +3.8 63 +11 +11 1013.0 810.9
20 13.07 ЮВ 2-1
{4}
н/о н/о +9.9 +4.2 68 +9 +9 1013.5 810.9
21 13.07 Ю 4-4
{6}
н/о н/о +9.3 +4.5 72 +7 +7 1013.7 810.6
22 13.07 ЮВ 1-5
{5}
н/о н/о +8.2 +4.6 78 +8 +8 1014.6 810.7
23 13.07 штиль 0-2
{2}
н/о н/о +7.4 +4.1 80 +7 +7 1015.2 810.6
00 14.07 Ю 2-1
{6}
н/о н/о +7.8 +3.3 73 +6 +6 1014.7 810.4
01 14.07 Ю 4-3
{5}
н/о н/о +7.5 +3.5 76 +4 +4 1014.6 810.2
02 14.07 Ю 2-5
{5}
н/о н/о +7.0 +3.6 79 +5 +5 1014.9 810.1
03 14.07 Ю 1-4
{4}
н/о н/о +7.2 +3.8 79 +6 +6 1014.3 809.8
04 14.07 Ю 1 н/о н/о +7.4 +3.8 78 +7 +7 1013.9 809.6
05 14.07 В 2-2
{3}
н/о н/о +8.3 +3.9 74 +7 +7 1013.1 809.5
06 14.07 Ю 2-2
{5}
н/о н/о +9.1 +3.6 68 +8 +8 1012.7 809.6 +6.7 +11.9
07 14.07 ЮВ 3-4
{5}
н/о н/о +9.7 +4.6 71 +8 +8 1012.1 809.6
08 14.07 В 1-5
{5}
н/о н/о +10.9 +3.3 59 +11 +11 1011.3 809.7
09 14.07 ЮВ 4-4
{9}
н/о н/о +11.7 +2.0 51 +10 +10 1010.6 809.6
10 14.07 Ю 5-9
{12}
н/о н/о +12.0 -1.8 38 +10 +10 1010.4 809.6
11 14.07 Ю 5-8
{8}
н/о н/о +12.2 -1.6 38 +10 +10 1010.5 809.8
12 14.07 ЮЗ 6-6
{12}
н/о н/о +12.6 -0.6 40 +10 +10 1009.9 809.6
13 14.07 Ю 8-9
{12}
н/о н/о +13.1 +0.2 41 +11 +11 1008.9 809.2
14 14.07 Ю 8-12
{13}
н/о н/о +12.6 -2.0 36 +10 +10 1009.1 809.1
15 14.07 ЮЗ 4-11
{11}
н/о н/о +13.2 -2.3 34 +12 +12 1009.4 809.5
16 14.07 З 5-10
{10}
н/о н/о +11.4 +1.1 49 +9 +9 1010.5 809.5
17 14.07 З 6-10
{11}
н/о н/о +10.9 +0.7 49 +8 +8 1010.8 809.4
18 14.07 З 9-10
{13}
н/о н/о +9.7 +2.6 61 +6 +6 1011.5 809.1 +9.0 +13.8
19 14.07 З 6-12
{12}
н/о н/о +8.7 +2.0 63 +5 +5 1012.5 809.3
20 14.07 З 4-7
{8}
н/о н/о +8.2 +1.5 63 +5 +5 1013.2 809.5
21 14.07 З 4-6
{8}
н/о н/о +8.1 +0.3 58 +5 +5 1013.2 809.5
22 14.07 ЮЗ 5-6
{10}
н/о н/о +8.3 -0.2 55 +5 +5 1013.1 809.5
23 14.07 З 4-6
{8}
н/о н/о +7.3 +1.7 68 +4 +4 1013.8 809.4
00 15.07 СЗ 2-7
{12}
н/о н/о +7.0 +1.0 66 +5 +5 1014.2 809.5
01 15.07 С 1-6
{6}
н/о н/о +7.3 +2.6 72 +7 +7 1013.7 809.5
02 15.07 Ю 2-2
{3}
н/о н/о +6.5 +2.8 77 +4 +4 1014.5 809.5
03 15.07 СЗ 1-3
{3}
н/о н/о +6.6 +2.2 73 +6 +6 1014.6 809.6
04 15.07 З 3 н/о н/о +6.8 +2.9 76 +4 +4 1014.2 809.5
05 15.07 ЮВ 2-4
{5}
н/о н/о +6.5 +3.0 78 +4 +4 1014.6 809.6
06 15.07 ЮВ 1-3
{7}
н/о н/о +7.4 +3.0 74 +7 +7 1014.2 809.8 +5.7 +9.7
07 15.07 ЮВ 2-3
{4}
н/о н/о +8.0 +4.1 76 +6 +6 1014.2 810.1
08 15.07 ЮВ 3-2
{5}
н/о н/о +8.9 +4.2 72 +7 +7 1013.5 810.3
09 15.07 В 2-6
{7}
н/о н/о +10.5 +4.6 67 +9 +9 1012.8 810.7
10 15.07 В 2-4
{6}
н/о н/о +11.1 +5.0 66 +10 +10 1012.7 810.9
11 15.07 В 3-5
{5}
н/о н/о +11.5 +5.2 65 +10 +10 1012.6 811.1
12 15.07 В 2-5
{7}
н/о н/о +13.0 +5.2 59 +12 +12 1011.7 811.4
13 15.07 В 2-4
{7}
н/о н/о +13.6 +5.3 57 +13 +13 1011.6 811.6
14 15.07 ЮВ 1-4
{6}
н/о н/о +14.1 +5.6 57 +15 +15 1011.5 811.8
15 15.07 З 5-8
{8}
н/о н/о +13.0 +6.2 63 +11 +11 1012.3 811.8
16 15.07 З 5-7
{8}
н/о н/о +14.0 +5.9 58 +12 +12 1011.6 811.9
17 15.07 В 2-7
{7}
н/о н/о +13.4 +6.0 61 +13 +13 1012.2 812.0
18 15.07 СВ 1-4
{8}
н/о н/о +13.0 +6.2 63 +13 +13 1012.7 812.1 +7.3 +14.9
19 15.07 В 1-3
{3}
н/о н/о +13.2 +5.4 59 +14 +14 1012.6 812.2
20 15.07 Ю 2-3
{4}
н/о н/о +12.9 +6.0 63 +12 +12 1012.9 812.2
21 15.07 ЮВ 1-3
{3}
н/о н/о +12.1 +5.8 65 +12 +12 1013.7 812.4
22 15.07 Ю 4-2
{4}
н/о н/о +12.7 +5.7 62 +11 +11 1013.3 812.4
23 15.07 ЮВ 5-5
{6}
н/о н/о +12.4 +5.1 61 +10 +10 1013.4 812.3
00 16.07 Ю 6-6
{7}
н/о н/о +12.1 +5.3 63 +10 +10 1013.4 812.1
01 16.07 Ю 7-7
{8}
н/о н/о +11.2 +4.8 65 +8 +8 1013.8 811.9
02 16.07 Ю 6-9
{9}
н/о н/о +10.9 +5.0 67 +8 +8 1014.1 812.0
03 16.07 Ю 6-6
{8}
н/о н/о +10.8 +5.3 69 +8 +8 1014.0 811.8
04 16.07 Ю 7 н/о н/о +11.0 +5.3 68 +8 +8 1013.7 811.7
05 16.07 Ю 7-7
{8}
н/о н/о +11.3 +4.8 64 +8 +8 1013.3 811.6
06 16.07 Ю 8-8
{10}
н/о н/о +11.8 +4.2 60 +9 +9 1012.6 811.2 +10.2 +13.5
07 16.07 Ю 8-10
{11}
н/о н/о +12.3 +3.0 53 +9 +9 1012.6 811.5
08 16.07 ЮВ 7-9
{10}
н/о н/о +12.9 +2.5 49 +11 +11 1012.0 811.5
09 16.07 Ю 6-9
{10}
н/о н/о +13.6 +1.9 45 +12 +12 1011.4 811.6
10 16.07 Ю 7-8
{11}
н/о н/о +14.1 -0.5 37 +12 +12 1011.4 811.6
11 16.07 Ю 7-9
{11}
н/о н/о +14.5 -1.4 33 +13 +13 1010.9 811.7

 

Местоположение метеостанции Juvvasshoe (Норвегия): широта 61.68 долгота 8.37 высота над уровнем моря 1894 м.

В архиве по умолчанию представлена погода в Juvvasshoe за последнюю неделю. Архивные данные за месяц целиком и за предыдущие месяцы, начиная с января 2011 года, Вы можете получить, выбрав интересующий диапазон дат из раскрывающегося списка и нажав кнопку "Ввод!".


*Определитесь, кто Вы:
робот инопланетянин человек

Внимание! Время в таблицах - всемирное. Для получения местного времени необходимо прибавить поправку, которая в Juvvasshoe равна 1 ч.

Смотрите также архив погоды в соседних городах и на ближайших метеорологических станциях:

Погода в Sognefjellhytta (Норвегия) (23 км)
Погода в Brata (Норвегия) (36 км)
Погода в Grotli III (Норвегия) (53 км)
Погода в Beitostolen II (Норвегия) (56 км)
Погода в Skabu (Норвегия) (57 км)
Погода в Filefjell-Kyrkjestolane (Норвегия) (57 км)
Погода в Dombas-Nordigard (Норвегия) (59 км)
Погода в Bjorli (Норвегия) (65 км)
Погода в Fokstugu (Норвегия) (68 км)
Погода в Loken i Volbu (Норвегия) (72 км)

Пояснения к столбцам:

Ветер - указаны скорость ветра в м/с - средняя за 10 мин, порывы в срок и между сроками (в фигурных скобках) и направление, откуда дует ветер: С - северный, СВ - северо-восточный, В - восточный, ЮВ - юго-восточный, Ю - южный, ЮЗ - юго-западный, З - западный, СЗ - северо-западный.
Видимость - горизонтальная дальность видимости в метрах или километрах. При видимости от 1 до 10 км при отсутствии осадков обычно наблюдается дымка, при ухудшении видимости до 1 км и менее - туман. В сухую погоду видимость может ухудшаться дымом, пылью или мглою.
Явления - указаны атмосферные явления, наблюдавшиеся в срок или в последний час перед сроком; фигурными скобками обозначены явления, наблюдавшиеся между сроками (за 1-3 часа до срока); квадратными скобками обозначены град или гололедные отложения с указанием их диаметра в мм.
Облачность - указаны через наклонную черту общая и нижняя облачность в баллах и высота нижней границы облаков в метрах; квадратными скобками обозначены формы облаков: Ci - перистые, Cs - перисто-слоистые, Cc - перисто-кучевые, Ac - высококучевые, As - высокослоистые, Sc - слоисто-кучевые, Ns - слоисто-дождевые, Cu - кучевые, Cb - кучево-дождевые. Подробнее классификацию облаков см. в Атласе облаков (PDF).
T - Температура воздуха - температура, измеренная на высоте 2 м над землей.
Td - Температура точки росы - температура, при понижении до которой содержащийся в воздухе водяной пар достигнет насыщения.
f - Относительная влажность воздуха - влажноcть воздуха, измеренная на высоте 2 м над землей.
Te - Эффективная температура - температура, которую ощущает одетый по сезону человек в тени. Характеристика душности погоды. При расчете учитывается влияние влажности воздуха и скорости ветра на теплоощущения человека.
Tes - Эффективная температура на солнце - температура, которую ощущает человек, с поправкой на солнечный нагрев. Характеристика знойности погоды. Зависит от высоты солнца над горизонтом, облачности и скорости ветра. Ночью, в пасмурную погоду, а также при ветре 12 м/с и более поправка равна нулю.
P - Атмосферное давление - приведенное к уровню моря атмосферное давление.
Po - Атмосферное давление - измеренное на уровне метеостанции атмосферное давление.
Tmin - Минимальная температура - минимум температуры воздуха на высоте 2 м над землей.
Tmax - Максимальная температура - максимум температуры воздуха на высоте 2 м над землей.
R - Количество осадков - Количество выпавших осадков за период времени, мм. При наведении курсора мыши на число - период времени, за который выпало указанное количество осадков.
R24 - Количество осадков - Количество выпавших осадков за 24 часа, мм.
S - Снежный покров - Высота снежного покрова, см. При наведении курсора мыши на число - состояние снежного покрова и степень покрытия местности в баллах.